Makassar, Indonesia

5:57 PM WITA on January 20, 2018 (GMT +0800)
Hasanuddin

Weather History for WAAA - October, 2012

Change the Weather History Date:

Sunday, October 7, 2012

  Actual Average Record
Temperature  
Mean Temperature 86 °F -  
Max Temperature 97 °F - - ()
Min Temperature 74 °F - - ()
Cooling Degree Days 20    
Growing Degree Days 36 (Base 50)    
Moisture  
Dew Point 74 °F    
Average Humidity 75    
Maximum Humidity 96    
Minimum Humidity 41    
Precipitation  
Precipitation 0.00 in - - ()
Sea Level Pressure  
Sea Level Pressure 29.83 in    
Wind  
Wind Speed 4 mph ()    
Max Wind Speed 14 mph    
Max Gust Speed -    
Visibility 5.3 miles    
Events      
T = Trace of Precipitation, MM = Missing Value Source: Averaged Metar Reports

Daily Weather History Graph

Daily Weather History Graph

Search for Another Location

Airport or City:

Trip Planner

Search our weather history database for the weather conditions in past years. The results will help you decide how hot, cold, wet, or windy it might be!

Date:

Astronomy

Oct. 07, 2012 Rise Set
Actual Time 5:44 AM WITA 5:54 PM WITA
Civil Twilight 5:23 AM WITA 6:15 PM WITA
Nautical Twilight 4:59 AM WITA 6:40 PM WITA
Astronomical Twilight 4:35 AM WITA 7:04 PM WITA
Moon 11:34 PM WITA (10/7) 10:53 AM WITA (10/7)
Length of Visible Light 12h 52m
Length of Day
12h 10m
Waning Gibbous, 61% of the Moon is Illuminated
Oct 7
Waning Gibbous
Oct 8
Last Quarter
Oct 15
New
Oct 22
First Quarter
Oct 30
Full

Hourly Weather History & Observations

Time (WITA) Temp. Heat Index Dew Point Humidity Pressure Visibility Wind Dir Wind Speed Gust Speed Precip Events Conditions
12:00 AM 78.8 °F - 73.4 °F 83% 29.86 in 5.0 mi Variable 2.3 mph - N/A   Unknown
12:30 AM 77.0 °F - 73.4 °F 89% 29.86 in 5.0 mi Variable 1.2 mph - N/A   Unknown
1:00 AM 77.0 °F - 73.4 °F 89% 29.86 in 5.0 mi Variable 2.3 mph - N/A   Unknown
1:30 AM 77.0 °F - 73.4 °F 89% 29.86 in 5.0 mi East 2.3 mph - N/A   Partly Cloudy
2:00 AM 76 °F - 73 °F 88% 29.85 in 5 mi South 2.3 mph - -   Scattered Clouds
2:00 AM 77.0 °F - 73.4 °F 89% 29.83 in 5.0 mi Variable 2.3 mph - N/A   Partly Cloudy
2:30 AM 75.2 °F - 73.4 °F 94% 29.83 in 5.0 mi South 3.5 mph - N/A   Unknown
3:00 AM 75.2 °F - 73.4 °F 94% 29.83 in 5.0 mi SSW 1.2 mph - N/A   Unknown
4:00 AM 75.2 °F - 71.6 °F 89% 0.00 in 5.0 mi Variable 2.3 mph - N/A   Unknown
4:30 AM 75.2 °F - 71.6 °F 89% 29.83 in 5.0 mi South 3.5 mph - N/A   Partly Cloudy
5:00 AM 74 °F - 73 °F 96% 29.86 in 5 mi SSW 2.3 mph - -   Scattered Clouds
5:00 AM 75.2 °F - 71.6 °F 89% 29.86 in 5.0 mi Variable 2.3 mph - N/A   Unknown
5:30 AM 75.2 °F - 71.6 °F 89% 29.86 in 5.0 mi Variable 1.2 mph - N/A   Unknown
6:00 AM 75.2 °F - 71.6 °F 89% 29.86 in 5.0 mi South 4.6 mph - N/A   Partly Cloudy
6:30 AM 77.0 °F - 71.6 °F 83% 29.89 in 5.6 mi Variable 1.2 mph - N/A   Partly Cloudy
7:00 AM 78.8 °F - 71.6 °F 78% 29.89 in 5.6 mi Variable 2.3 mph - N/A   Partly Cloudy
7:30 AM 82.4 °F 88.2 °F 73.4 °F 74% - 5.6 mi ENE 3.5 mph - N/A   Unknown
8:00 AM 86 °F - 73 °F 58% 29.92 in 6 mi ENE 2.3 mph - -   Scattered Clouds
8:00 AM 84.2 °F 90.9 °F 73.4 °F 70% 29.92 in 5.6 mi Variable 2.3 mph - N/A   Partly Cloudy
8:30 AM 86.0 °F 93.4 °F 73.4 °F 66% 29.92 in 5.6 mi NNW 3.5 mph - N/A   Partly Cloudy
1:00 PM 93.2 °F 102.4 °F 73.4 °F 52% 29.80 in 5.6 mi NW 13.8 mph - N/A   Partly Cloudy
1:30 PM 91.4 °F 100.1 °F 73.4 °F 55% 29.77 in 5.6 mi NW 12.7 mph - N/A   Partly Cloudy
2:00 PM 93 °F - 72 °F 41% 29.78 in 6 mi West 12.7 mph - -   Scattered Clouds
2:00 PM 93.2 °F 102.4 °F 73.4 °F 52% - 5.6 mi West 12.7 mph - N/A   Unknown
2:30 PM 93.2 °F 102.4 °F 73.4 °F 52% 29.77 in 5.6 mi WSW 11.5 mph - N/A   Partly Cloudy
3:00 PM 93.2 °F 102.4 °F 73.4 °F 52% 29.74 in 5.6 mi West 11.5 mph - N/A   Partly Cloudy
3:30 PM 93.2 °F 105.0 °F 75.2 °F 56% 29.74 in 5.6 mi West 10.4 mph - N/A   Partly Cloudy
4:00 PM 93.2 °F 105.0 °F 75.2 °F 56% 29.74 in 5.6 mi West 9.2 mph - N/A   Partly Cloudy
4:30 PM 91.4 °F 100.1 °F 73.4 °F 55% 29.74 in 5.6 mi West 8.1 mph - N/A   Partly Cloudy
5:00 PM 91 °F - 74 °F 50% 29.77 in 6 mi WNW 8.1 mph - -   Scattered Clouds
5:00 PM 91.4 °F 100.1 °F 73.4 °F 55% 29.77 in 5.6 mi WNW 8.1 mph - N/A   Partly Cloudy
5:30 PM 89.6 °F 99.8 °F 75.2 °F 62% 29.77 in 5.6 mi NW 10.4 mph - N/A   Partly Cloudy
6:00 PM 87.8 °F 99.7 °F 77.0 °F 70% 29.77 in 5.6 mi NW 8.1 mph - N/A   Partly Cloudy
7:00 PM 86.0 °F 96.9 °F 77.0 °F 74% 29.80 in 5.0 mi North 5.8 mph - N/A   Partly Cloudy
7:30 PM 84.2 °F 94.1 °F 77.0 °F 79% 29.80 in 5.0 mi NNW 4.6 mph - N/A   Partly Cloudy
8:00 PM 84 °F - 78 °F 76% 29.83 in 5 mi NNW 5.8 mph - -   Scattered Clouds
8:00 PM 84.2 °F 94.1 °F 77.0 °F 79% 29.83 in 5.0 mi NNW 5.8 mph - N/A   Partly Cloudy
8:30 PM 84.2 °F 94.1 °F 77.0 °F 79% 29.83 in 5.0 mi North 5.8 mph - N/A   Partly Cloudy
9:00 PM 84.2 °F 94.1 °F 77.0 °F 79% 29.83 in 5.0 mi NNW 3.5 mph - N/A   Partly Cloudy
9:30 PM 84.2 °F 94.1 °F 77.0 °F 79% 29.83 in 5.0 mi NNW 2.3 mph - N/A   Partly Cloudy
10:00 PM 82.4 °F 89.5 °F 75.2 °F 79% 29.83 in 5.0 mi NE 2.3 mph - N/A   Partly Cloudy
10:30 PM 80.6 °F 87.1 °F 77.0 °F 89% 29.83 in 5.0 mi Variable 2.3 mph - N/A   Partly Cloudy
11:00 PM 79 °F - 76 °F 86% 29.85 in 5 mi ESE 2.3 mph - -   Scattered Clouds
11:00 PM 80.6 °F 86.2 °F 75.2 °F 84% 29.83 in 5.0 mi ESE 2.3 mph - N/A   Partly Cloudy
11:30 PM 78.8 °F - 75.2 °F 89% 29.83 in 5.0 mi East 3.5 mph - N/A   Partly Cloudy